timestamp,wind_dir_avg,wind_spd_avg,wind_spd_max_dir,wind_spd_gust,battery_voltage,lat,long
2023-05-09 00:04:00+00:00,217.0,7.45,216.0,8.63,12.41,47.59359,-54.27349
2023-05-09 00:14:00+00:00,220.0,6.37,221.0,7.38,12.33,47.59359,-54.27349
2023-05-09 00:24:00+00:00,213.0,7.58,217.0,8.28,12.33,47.59359,-54.27349
2023-05-09 00:34:00+00:00,212.0,8.27,211.0,9.13,12.33,47.59359,-54.27349
2023-05-09 00:44:00+00:00,200.0,9.29,203.0,9.95,12.33,47.59359,-54.27349
2023-05-09 00:54:00+00:00,206.0,9.4,206.0,10.48,12.33,47.59359,-54.27349
2023-05-09 01:04:00+00:00,197.0,10.31,198.0,11.96,12.33,47.59359,-54.27349
2023-05-09 01:14:00+00:00,207.0,8.06,208.0,9.14,12.33,47.59359,-54.27349
2023-05-09 01:24:00+00:00,203.0,8.55,207.0,9.61,12.33,47.59359,-54.27349
2023-05-09 01:34:00+00:00,213.0,6.93,215.0,7.57,12.33,47.59359,-54.27349
2023-05-09 01:44:00+00:00,218.0,6.34,216.0,7.23,12.33,47.59359,-54.27349
2023-05-09 01:54:00+00:00,252.0,4.69,258.0,5.33,12.33,47.59359,-54.27349
2023-05-09 02:04:00+00:00,257.0,6.13,259.0,6.48,12.33,47.59359,-54.27349
2023-05-09 02:14:00+00:00,228.0,6.15,230.0,6.95,12.33,47.59359,-54.27349
2023-05-09 02:24:00+00:00,221.0,6.9,221.0,7.85,12.33,47.59359,-54.27349
2023-05-09 02:34:00+00:00,215.0,6.6,213.0,8.44,12.33,47.59359,-54.27349
2023-05-09 02:44:00+00:00,205.0,7.72,209.0,8.65,12.33,47.59359,-54.27349
2023-05-09 02:54:00+00:00,211.0,6.89,216.0,7.73,12.33,47.59359,-54.27349
2023-05-09 03:04:00+00:00,232.0,5.26,232.0,6.01,12.33,47.59359,-54.27349
2023-05-09 03:14:00+00:00,240.0,5.0,233.0,6.38,12.33,47.59359,-54.27349
2023-05-09 03:24:00+00:00,233.0,5.15,232.0,5.93,12.33,47.59359,-54.27349
2023-05-09 03:34:00+00:00,230.0,5.79,231.0,6.81,12.33,47.59359,-54.27349
2023-05-09 03:44:00+00:00,220.0,6.19,220.0,7.33,12.33,47.59359,-54.27349
2023-05-09 03:54:00+00:00,230.0,5.92,227.0,7.12,12.33,47.59359,-54.27349
2023-05-09 04:04:00+00:00,224.0,7.32,228.0,8.18,12.33,47.59359,-54.27349
2023-05-09 04:14:01+00:00,220.0,7.43,220.0,7.98,12.25,47.59359,-54.27349
2023-05-09 04:24:01+00:00,229.0,6.19,227.0,6.91,12.25,47.59359,-54.27349
2023-05-09 04:34:01+00:00,241.0,5.44,243.0,6.52,12.25,47.59359,-54.27349
2023-05-09 04:44:01+00:00,230.0,4.92,235.0,5.93,12.25,47.59359,-54.27349
2023-05-09 04:54:01+00:00,218.0,5.48,218.0,6.07,12.25,47.59359,-54.27349
2023-05-09 05:04:01+00:00,228.0,4.29,227.0,4.94,12.25,47.59359,-54.27349
2023-05-09 05:14:00+00:00,222.0,3.01,226.0,3.57,12.25,47.59359,-54.27349
2023-05-09 05:24:00+00:00,227.0,2.37,225.0,2.77,12.25,47.59359,-54.27349
2023-05-09 05:34:00+00:00,2.0,0.79,355.0,1.22,12.25,47.59359,-54.27349
2023-05-09 05:44:00+00:00,317.0,0.96,325.0,1.17,12.25,47.59359,-54.27349
2023-05-09 05:54:00+00:00,277.0,4.24,277.0,5.73,12.25,47.59359,-54.27349
2023-05-09 06:04:00+00:00,199.0,2.96,200.0,3.74,12.25,47.59359,-54.27349
2023-05-09 06:14:01+00:00,194.0,1.52,191.0,1.81,12.17,47.59359,-54.27349
2023-05-09 06:24:01+00:00,168.0,2.4,168.0,2.83,12.17,47.59359,-54.27349
2023-05-09 06:34:01+00:00,173.0,2.32,174.0,2.56,12.17,47.59359,-54.27349
2023-05-09 06:44:01+00:00,195.0,2.72,190.0,3.51,12.17,47.59359,-54.27349
2023-05-09 06:54:01+00:00,192.0,1.21,197.0,1.55,12.17,47.59359,-54.27349
2023-05-09 07:04:01+00:00,146.0,2.28,146.0,2.52,12.17,47.59359,-54.27349
2023-05-09 07:14:01+00:00,131.0,2.45,133.0,3.18,12.17,47.59359,-54.27349
2023-05-09 07:24:01+00:00,129.0,3.84,128.0,4.82,12.17,47.59359,-54.27349
2023-05-09 07:34:01+00:00,102.0,3.2,106.0,5.52,12.17,47.59359,-54.27349
2023-05-09 07:44:01+00:00,92.0,2.52,102.0,6.0,12.17,47.59359,-54.27349
2023-05-09 07:54:01+00:00,150.0,2.19,127.0,3.11,12.17,47.59359,-54.27349
2023-05-09 08:04:01+00:00,153.0,1.91,119.0,3.62,12.17,47.59359,-54.27349
2023-05-09 08:14:01+00:00,159.0,2.29,124.0,3.13,12.09,47.59359,-54.27349
2023-05-09 08:24:01+00:00,315.0,0.01,198.0,0.0,12.09,47.59359,-54.27349
2023-05-09 08:34:01+00:00,315.0,0.01,196.0,0.0,12.09,47.59359,-54.27349
2023-05-09 08:44:01+00:00,212.0,1.58,211.0,1.68,12.09,47.59359,-54.27349
2023-05-09 08:54:01+00:00,325.0,1.76,330.0,2.07,12.09,47.59359,-54.27349
2023-05-09 09:04:01+00:00,315.0,0.01,332.0,0.0,12.09,47.59359,-54.27349
2023-05-09 09:14:01+00:00,248.0,1.67,249.0,1.92,12.09,47.59359,-54.27349
2023-05-09 09:24:01+00:00,232.0,3.33,236.0,3.73,12.09,47.59359,-54.27349
2023-05-09 09:34:01+00:00,315.0,0.01,220.0,0.0,12.09,47.59359,-54.27349
2023-05-09 09:44:01+00:00,217.0,5.29,221.0,6.01,12.09,47.59359,-54.27349
2023-05-09 09:54:01+00:00,315.0,0.01,209.0,0.0,12.09,47.59359,-54.27349
2023-05-09 10:04:01+00:00,191.0,16.0,191.0,18.64,12.09,47.59359,-54.27349
2023-05-09 10:14:00+00:00,210.0,4.92,214.0,5.62,12.25,47.59359,-54.27349
2023-05-09 10:24:00+00:00,204.0,4.3,212.0,4.95,12.25,47.59359,-54.27349
2023-05-09 10:34:00+00:00,200.0,5.45,211.0,6.34,12.25,47.59359,-54.27349
2023-05-09 10:44:00+00:00,179.0,5.61,179.0,6.16,12.25,47.59359,-54.27349
2023-05-09 10:54:00+00:00,208.0,6.19,212.0,7.15,12.25,47.59359,-54.27349
2023-05-09 11:04:00+00:00,211.0,7.37,210.0,8.28,12.25,47.59359,-54.27349
2023-05-09 11:14:01+00:00,213.0,9.06,211.0,10.06,12.97,47.59359,-54.27349
2023-05-09 11:24:01+00:00,211.0,9.84,214.0,10.78,12.97,47.59359,-54.27349
2023-05-09 11:34:01+00:00,210.0,9.02,208.0,10.1,12.97,47.59359,-54.27349
2023-05-09 11:44:01+00:00,209.0,8.74,201.0,9.76,12.97,47.59359,-54.27349
2023-05-09 11:54:01+00:00,209.0,8.65,206.0,9.77,12.97,47.59359,-54.27349
2023-05-09 12:04:01+00:00,216.0,9.1,225.0,10.66,12.97,47.59359,-54.27349
2023-05-09 12:14:01+00:00,215.0,10.02,213.0,10.92,13.37,47.59359,-54.27349
2023-05-09 12:24:01+00:00,214.0,11.11,216.0,12.94,13.37,47.59359,-54.27349
2023-05-09 12:34:01+00:00,213.0,12.58,212.0,14.11,13.37,47.59359,-54.27349
2023-05-09 12:44:01+00:00,213.0,12.29,209.0,13.83,13.37,47.59359,-54.27349
2023-05-09 12:54:01+00:00,215.0,12.18,213.0,13.65,13.37,47.59359,-54.27349
2023-05-09 13:04:01+00:00,213.0,11.85,203.0,12.97,13.37,47.59359,-54.27349
2023-05-09 14:14:01+00:00,214.0,12.28,215.0,13.54,13.68,47.59359,-54.27349
2023-05-09 14:24:01+00:00,215.0,12.56,210.0,14.24,13.68,47.59359,-54.27349
2023-05-09 14:34:01+00:00,216.0,11.97,215.0,13.15,13.68,47.59359,-54.27349
2023-05-09 14:44:01+00:00,215.0,12.62,219.0,13.85,13.68,47.59359,-54.27349
2023-05-09 14:54:01+00:00,216.0,11.47,213.0,12.95,13.68,47.59359,-54.27349
2023-05-09 15:04:01+00:00,214.0,12.25,219.0,15.28,13.68,47.59359,-54.27349
2023-05-09 15:14:00+00:00,217.0,11.17,215.0,13.29,13.6,47.59359,-54.27349
2023-05-09 15:24:00+00:00,216.0,11.52,217.0,12.96,13.6,47.59359,-54.27349
2023-05-09 15:34:00+00:00,217.0,10.19,213.0,11.99,13.6,47.59359,-54.27349
2023-05-09 15:44:00+00:00,213.0,10.41,213.0,11.93,13.6,47.59359,-54.27349
2023-05-09 15:54:00+00:00,214.0,10.02,221.0,11.26,13.6,47.59359,-54.27349
2023-05-09 16:04:00+00:00,213.0,9.47,213.0,11.44,13.6,47.59359,-54.27349
2023-05-09 16:14:00+00:00,215.0,10.07,221.0,11.52,13.76,47.59359,-54.27349
2023-05-09 16:24:00+00:00,214.0,9.38,217.0,10.83,13.76,47.59359,-54.27349
2023-05-09 16:34:00+00:00,214.0,8.74,217.0,10.46,13.76,47.59359,-54.27349
2023-05-09 16:44:00+00:00,213.0,9.41,217.0,11.15,13.76,47.59359,-54.27349
2023-05-09 16:54:00+00:00,218.0,8.66,226.0,10.43,13.76,47.59359,-54.27349
2023-05-09 17:04:00+00:00,221.0,6.4,230.0,7.49,13.76,47.59359,-54.27349
2023-05-09 17:14:00+00:00,218.0,6.13,218.0,6.71,13.92,47.59359,-54.27349
2023-05-09 17:24:00+00:00,223.0,4.75,220.0,5.77,13.92,47.59359,-54.27349
2023-05-09 17:34:00+00:00,226.0,5.26,233.0,5.85,13.92,47.59359,-54.27349
2023-05-09 17:44:00+00:00,304.0,10.52,302.0,12.33,13.92,47.59359,-54.27349
2023-05-09 17:54:00+00:00,302.0,11.21,298.0,13.24,13.92,47.59359,-54.27349
2023-05-09 18:04:00+00:00,302.0,10.46,294.0,12.54,13.92,47.59359,-54.27349
2023-05-09 18:14:00+00:00,298.0,10.42,301.0,11.53,13.6,47.59359,-54.27349
2023-05-09 18:24:00+00:00,296.0,7.56,310.0,10.17,13.6,47.59359,-54.27349
2023-05-09 18:34:00+00:00,296.0,11.34,300.0,13.25,13.6,47.59359,-54.27349
2023-05-09 18:44:00+00:00,290.0,9.67,289.0,12.28,13.6,47.59359,-54.27349
2023-05-09 18:54:00+00:00,288.0,11.45,286.0,16.77,13.6,47.59359,-54.27349
2023-05-09 19:04:00+00:00,292.0,11.45,293.0,13.19,13.6,47.59359,-54.27349
2023-05-09 19:14:00+00:00,288.0,9.99,284.0,12.64,13.68,47.59359,-54.27349
2023-05-09 19:24:00+00:00,288.0,9.32,287.0,10.86,13.68,47.59359,-54.27349
2023-05-09 19:34:00+00:00,288.0,8.74,282.0,10.23,13.68,47.59359,-54.27349
2023-05-09 19:44:00+00:00,283.0,9.47,287.0,11.08,13.68,47.59359,-54.27349
2023-05-09 19:54:00+00:00,291.0,11.05,297.0,12.47,13.68,47.59359,-54.27349
2023-05-09 20:04:00+00:00,282.0,9.42,284.0,10.58,13.68,47.59359,-54.27349
2023-05-09 20:14:01+00:00,312.0,10.96,318.0,11.88,13.68,47.59359,-54.27349
2023-05-09 20:24:01+00:00,279.0,8.32,277.0,9.31,13.68,47.59359,-54.27349
2023-05-09 20:34:01+00:00,287.0,5.81,295.0,6.8,13.68,47.59359,-54.27349
2023-05-09 20:44:01+00:00,283.0,7.83,284.0,9.63,13.68,47.59359,-54.27349
2023-05-09 20:54:01+00:00,288.0,8.37,296.0,10.0,13.68,47.59359,-54.27349
2023-05-09 21:04:01+00:00,289.0,8.51,283.0,9.88,13.68,47.59359,-54.27349
2023-05-09 21:14:01+00:00,285.0,8.96,283.0,11.61,13.68,47.59359,-54.27349
2023-05-09 21:24:01+00:00,284.0,8.99,282.0,11.41,13.68,47.59359,-54.27349
2023-05-09 21:34:01+00:00,300.0,12.08,300.0,14.01,13.68,47.59359,-54.27349
2023-05-09 21:44:01+00:00,297.0,9.28,301.0,11.38,13.68,47.59359,-54.27349
2023-05-09 21:54:01+00:00,288.0,12.26,296.0,13.65,13.68,47.59359,-54.27349
2023-05-09 22:04:01+00:00,288.0,11.96,295.0,14.82,13.68,47.59359,-54.27349
2023-05-09 22:14:00+00:00,289.0,12.97,291.0,15.39,13.44,47.59359,-54.27349
2023-05-09 22:24:00+00:00,274.0,9.65,267.0,12.15,13.44,47.59359,-54.27349
2023-05-09 22:34:00+00:00,261.0,9.25,266.0,11.06,13.44,47.59359,-54.27349
2023-05-09 22:44:00+00:00,270.0,10.77,272.0,13.91,13.44,47.59359,-54.27349
2023-05-09 22:54:00+00:00,264.0,9.23,268.0,12.28,13.44,47.59359,-54.27349
2023-05-09 23:04:00+00:00,263.0,10.33,268.0,13.23,13.44,47.59359,-54.27349
2023-05-09 23:14:00+00:00,275.0,9.01,272.0,13.2,12.97,47.59359,-54.27349
2023-05-09 23:24:00+00:00,290.0,13.51,301.0,15.27,12.97,47.59359,-54.27349
2023-05-09 23:34:00+00:00,268.0,13.47,283.0,17.78,12.97,47.59359,-54.27349
2023-05-09 23:44:00+00:00,279.0,10.3,280.0,14.62,12.97,47.59359,-54.27349
2023-05-09 23:54:00+00:00,279.0,13.25,280.0,15.27,12.97,47.59359,-54.27349
